[[{"header":{"parameterUnit":"m.s-1","parameterCategory":1,"la1":30.2991,"la2":30.254,"lo1":-89.0895,"lo2":-89.0444,"dy":0.0017,"dx":0.0017,"nx":28,"ny":28,"refTime":"2023-08-18T21:00:00:Z","depth":0,"parameterNumber":2,"parameterNumberName":"U-component_of_WINDS"},"data":[0,0,0,0,0,0,0,0,0,0,0,0,0,0,0,0,0,0,0,0,0,0,0,0,0,0,0,0,0,0,0,0,0,0,0,0,0,0,0,0,0,0,0,0,0,0,0,0,0,0,0,0,0,0,0,0,0,0,3.7538,3.7538,0,3.7532,3.7532,3.7532,3.7385,3.7381,3.7378,3.7374,3.7369,3.7372,3.7376,0,0,0,0,0,0,0,0,0,0,0,0,0,3.7425,3.7428,3.7538,3.7538,3.7538,3.7532,3.7532,3.7532,3.7386,3.7381,3.7377,3.7372,3.7368,3.7372,3.7376,0,0,0,0,0,0,0,0,0,0,0,0,0,3.7452,3.7429,3.7538,3.7465,3.7458,3.7532,3.7532,3.7531,3.7387,3.7381,3.7375,3.737,3.7367,3.7371,3.7376,3.7521,0,0,3.7392,3.7394,0,0,0,0,0,0,0,0,3.7451,3.7456,3.7475,3.747,3.7462,3.7453,3.749,3.7528,3.7388,3.7414,3.7374,3.7367,3.7402,3.7404,3.7415,3.7521,3.752,3.7392,3.7395,3.7398,3.7399,0,0,0,0,0,0,0,3.7449,3.7456,3.7536,3.7476,3.7468,3.7432,3.7429,3.7496,3.744,3.7411,3.74,3.7402,3.7397,3.741,3.7414,3.752,3.7392,3.7397,3.74,3.7402,3.7742,3.7747,0,0,0,0,0,0,3.7457,3.7455,3.7536,3.7535,3.7442,3.7439,3.7436,3.7462,3.7438,3.7429,3.7406,3.7395,3.7404,3.7408,3.7413,3.7578,3.7398,3.7402,3.7405,3.7736,3.7743,3.7749,0,0,0,0,0,0,3.7455,3.7466,3.7536,3.7492,3.7499,3.7446,3.7477,3.7465,3.7478,3.7435,3.7424,3.743,3.74,3.7406,3.7494,3.7575,3.7405,3.7409,3.7729,3.7738,3.7746,3.7911,0,0,0,0,0,0,3.7453,3.7466,3.752,3.7495,3.7501,3.7618,3.7482,3.7469,3.7487,3.7471,3.7454,3.7446,3.7396,3.7488,3.7499,3.7579,3.7413,3.7721,3.7733,3.7743,3.7898,3.7924,3.7947,0,0,0,0,0,3.7449,3.7568,3.7524,3.7534,3.7568,3.7623,3.7627,3.7566,3.7494,3.7548,3.752,3.7447,3.7566,3.7498,3.751,3.7593,3.7716,3.7729,3.7742,3.7887,3.7919,3.7946,0,0,0,0,0,0,3.7605,3.7563,3.7514,3.7628,3.763,3.7598,3.7664,3.7603,3.7626,3.7611,3.7535,3.7533,3.7633,3.7622,3.7547,3.773,3.7627,3.7644,3.7733,3.7763,3.7787,3.7787,3.7417,0,0,0,0,0,3.7653,3.7701,3.7661,3.7766,3.7769,3.7717,3.7739,3.7692,3.7691,3.7692,3.767,3.7673,3.771,3.7737,3.7769,3.7896,3.7889,3.7959,3.7984,3.8004,3.8018,3.8082,3.8112,3.7794,3.7793,3.7793,0,0,3.7752,3.7735,3.777,3.7797,3.7793,3.7843,3.7719,3.7778,3.7815,3.7701,3.7782,3.7767,3.7765,3.7873,3.7919,3.7867,3.8105,3.8021,3.8038,3.8041,3.8099,3.8129,3.8156,3.7803,3.7801,3.78,0,0,3.7957,3.795,3.8034,3.8033,3.8028,3.7992,3.8013,3.7991,3.7976,3.8056,3.7971,3.8014,3.8081,3.8082,3.8091,3.8297,3.8229,3.831,3.8437,3.85,3.8525,3.8547,3.8617,3.8644,3.8325,3.8325,3.8325,0,3.808,3.8153,3.8086,3.815,3.8164,3.8063,3.8147,3.8149,3.8156,3.8168,3.8109,3.8189,3.8181,3.8286,3.8336,3.8348,3.8368,3.831,3.8527,3.8548,3.8567,3.8634,3.8661,3.8334,3.8333,3.8332,3.8332,0,3.8303,3.8355,3.8424,3.8431,3.8453,3.8528,3.8472,3.8502,3.8454,3.8424,3.8507,3.8493,3.852,3.8542,3.8496,3.8641,3.8608,3.854,3.8434,3.8608,3.8669,3.8694,3.8348,3.8345,3.8342,3.834,0,0,3.8605,3.8574,3.86,3.8601,3.8588,3.8627,3.8697,3.8722,3.8748,3.8757,3.8812,3.8871,3.8806,3.8817,3.8771,3.8827,3.8987,3.8751,3.8749,3.8793,3.9143,3.9192,3.9223,3.8943,3.8948,3.8952,3.9142,0,3.8801,3.8916,3.8858,3.8981,3.9026,3.8931,3.8991,3.899,3.8965,3.9,3.8972,3.9014,3.8927,3.8933,3.8984,3.8957,3.9056,3.8943,3.8992,3.8995,3.8993,3.9255,3.9307,3.9487,3.9165,3.9169,3.9172,0,3.9044,3.906,3.9188,3.9164,3.9181,3.9237,3.9254,3.9289,3.9286,3.9263,3.9275,3.9215,3.9281,3.918,3.9269,3.9193,3.9211,3.92,3.9206,3.9206,3.9092,3.9259,3.9544,3.957,3.921,3.9207,3.9204,0,3.9247,3.9302,3.9384,3.9389,3.9365,3.9405,3.9397,3.9388,3.9406,3.9422,3.9433,3.9458,3.947,3.949,3.9438,3.9369,3.9534,3.9428,3.9516,3.9517,3.9552,3.955,3.9841,3.957,3.9569,3.9569,3.9568,0,3.947,3.9551,3.9475,3.9525,3.9613,3.9546,3.9634,3.9616,3.9609,3.9653,3.9574,3.9618,3.9548,3.9585,3.9545,3.9624,3.9631,3.9614,3.9602,3.9619,3.9621,3.9627,3.9612,3.9576,3.9574,3.9573,3.9571,0,3.9711,3.9664,3.9746,3.9716,3.9711,3.9776,3.975,3.9796,3.9765,3.9823,3.9833,3.9785,3.9824,3.9775,3.9811,3.9783,3.989,3.9861,3.989,3.9881,3.997,3.9961,4.0272,4.0309,4.0017,4.002,4.0023,0,3.9854,3.9913,3.989,3.9913,3.9909,3.995,3.9967,3.9904,3.9926,3.9926,3.9971,4.0003,4.0025,4.0093,4.0062,4.0088,4.0057,4.0164,4.006,4.0075,4.0055,4.0051,4.0055,4.0185,4.0188,4.0191,4.0193,0,4.0113,4.0086,4.0114,4.0134,4.0157,4.0171,4.0178,4.0202,4.0136,4.0165,4.0203,4.022,4.0256,4.0288,4.0306,4.0298,4.0235,4.0227,4.0248,4.0265,4.0278,4.0269,3.9945,4.0219,4.0217,4.0215,4.0213,4.0212,4.0307,4.0354,4.0344,4.0377,4.0376,4.0384,4.0424,4.0398,4.0429,4.0452,4.0413,4.0462,4.0456,4.0473,4.0472,4.0509,4.0462,4.0494,4.0501,4.0509,4.0521,4.0275,4.0512,4.0512,4.0511,4.051,4.051,0,4.0558,4.0547,4.0578,4.059,4.0616,4.0555,4.0559,4.0585,4.0628,4.0628,4.0651,4.0695,4.0726,4.0698,4.0723,4.0758,4.073,4.0767,4.0762,4.0761,4.0563,4.054,4.0789,4.0789,4.0789,4.0789,4.0789,4.0789,4.0692,4.0767,4.074,4.0814,4.0802,4.0848,4.0855,4.0863,4.0861,4.0913,4.0939,4.092,4.0908,4.0931,4.0957,4.0948,4.096,4.1007,4.0987,4.0802,4.0775,4.0749,4.0727,4.1011,4.1011,4.1181,4.1183,4.1184]},{"header":{"parameterUnit":"m.s-1","parameterCategory":1,"la1":30.2991,"la2":30.254,"lo1":-89.0895,"lo2":-89.0444,"dy":0.0017,"dx":0.0017,"nx":28,"ny":28,"refTime":"2023-08-18T21:00:00:Z","depth":0,"parameterNumber":3,"parameterNumberName":"V-component_of_WINDS"},"data":[0,0,0,0,0,0,0,0,0,0,0,0,0,0,0,0,0,0,0,0,0,0,0,0,0,0,0,0,0,0,0,0,0,0,0,0,0,0,0,0,0,0,0,0,0,0,0,0,0,0,0,0,0,0,0,0,0,0,2.7433,2.7434,0,2.7509,2.751,2.7511,2.7504,2.7503,2.7502,2.7501,2.7576,2.7579,2.7582,0,0,0,0,0,0,0,0,0,0,0,0,0,2.7278,2.728,2.7433,2.7434,2.7435,2.7509,2.751,2.7511,2.7505,2.7503,2.7502,2.7501,2.7575,2.7579,2.7583,0,0,0,0,0,0,0,0,0,0,0,0,0,2.7349,2.7281,2.7433,2.7441,2.7442,2.7509,2.751,2.7512,2.7505,2.7503,2.7502,2.75,2.7574,2.7578,2.7583,2.7646,0,0,2.7597,2.7599,0,0,0,0,0,0,0,0,2.7345,2.7354,2.7438,2.744,2.7442,2.7496,2.7483,2.7557,2.7505,2.7481,2.7501,2.7499,2.7551,2.7557,2.7575,2.765,2.7653,2.7598,2.76,2.7602,2.7604,0,0,0,0,0,0,0,2.734,2.7351,2.7463,2.744,2.7442,2.7439,2.7447,2.7497,2.7524,2.7483,2.7483,2.7492,2.7551,2.7571,2.7577,2.7654,2.7597,2.7602,2.7604,2.7606,2.7783,2.7784,0,0,0,0,0,0,2.7333,2.7347,2.7461,2.7465,2.7388,2.7443,2.7452,2.748,2.7524,2.7529,2.7493,2.7491,2.7564,2.7571,2.7579,2.7655,2.7602,2.7607,2.7609,2.7781,2.7783,2.7785,0,0,0,0,0,0,2.733,2.7344,2.7458,2.7406,2.742,2.7448,2.7479,2.7483,2.7502,2.7532,2.7536,2.7509,2.7563,2.7573,2.763,2.7658,2.7609,2.7613,2.7778,2.7781,2.7784,2.7808,0,0,0,0,0,0,2.7326,2.7342,2.7368,2.7407,2.7423,2.7508,2.7481,2.7485,2.751,2.7509,2.7547,2.7552,2.7562,2.7623,2.7634,2.7663,2.7617,2.7776,2.778,2.7783,2.7804,2.7811,2.7817,0,0,0,0,0,2.732,2.7371,2.7369,2.7383,2.7456,2.7509,2.7519,2.753,2.7513,2.7538,2.7557,2.7551,2.7653,2.7629,2.7641,2.7672,2.7774,2.7779,2.7783,2.7802,2.781,2.7816,0,0,0,0,0,0,2.7334,2.7376,2.7375,2.744,2.7471,2.7508,2.754,2.7538,2.7574,2.7571,2.7583,2.7591,2.7648,2.7666,2.7638,2.7735,2.7711,2.7718,2.7721,2.7729,2.7735,2.7729,2.762,0,0,0,0,0,2.7345,2.7386,2.742,2.7474,2.749,2.7512,2.7536,2.7542,2.7575,2.7588,2.7611,2.7642,2.768,2.7706,2.7743,2.7807,2.7815,2.7835,2.7841,2.7846,2.7851,2.7885,2.7893,2.7799,2.7799,2.7799,0,0,2.7367,2.7395,2.742,2.7478,2.7503,2.7544,2.7524,2.7568,2.7598,2.7594,2.7649,2.7667,2.7702,2.7762,2.779,2.7779,2.7879,2.7851,2.7855,2.7858,2.789,2.7899,2.7907,2.7802,2.7802,2.7801,0,0,2.7428,2.7455,2.7502,2.7527,2.7565,2.758,2.7591,2.7628,2.764,2.7696,2.7693,2.7729,2.7796,2.782,2.7842,2.7912,2.7907,2.7923,2.7955,2.7987,2.7994,2.8001,2.8024,2.8033,2.7929,2.7929,2.7929,0,2.7451,2.7514,2.7526,2.7571,2.7596,2.7595,2.7642,2.7666,2.7714,2.773,2.7717,2.7801,2.7824,2.789,2.7906,2.7924,2.7936,2.7919,2.7993,2.7999,2.8006,2.8028,2.8037,2.7931,2.7931,2.7931,2.793,0,2.7539,2.7582,2.7616,2.7663,2.7691,2.7737,2.7755,2.7782,2.7786,2.7801,2.7856,2.7885,2.7927,2.7943,2.7947,2.8009,2.8,2.799,2.7966,2.8016,2.8037,2.8046,2.7933,2.7933,2.7932,2.7932,0,0,2.761,2.7664,2.7676,2.7696,2.7738,2.7771,2.7816,2.7859,2.7881,2.7914,2.7951,2.8008,2.7998,2.8022,2.8029,2.8058,2.8109,2.8044,2.8044,2.8053,2.8177,2.8184,2.8193,2.8107,2.8109,2.811,2.8174,0,2.7675,2.7756,2.7768,2.7838,2.7878,2.7877,2.7916,2.7945,2.796,2.7995,2.8011,2.8051,2.8036,2.805,2.8079,2.8097,2.8134,2.8093,2.814,2.8141,2.813,2.8205,2.8212,2.8271,2.8182,2.8184,2.8185,0,2.7761,2.7797,2.7871,2.7907,2.7924,2.7959,2.7998,2.8032,2.8064,2.8073,2.81,2.8102,2.8147,2.8123,2.8184,2.8156,2.8176,2.8187,2.819,2.8193,2.8165,2.8209,2.829,2.8298,2.8198,2.8197,2.8196,0,2.7804,2.7871,2.7924,2.7942,2.7985,2.8009,2.8028,2.8059,2.8083,2.8117,2.8133,2.8171,2.8192,2.8221,2.8234,2.8215,2.8294,2.827,2.8301,2.8301,2.8317,2.8315,2.8401,2.8332,2.8332,2.8331,2.8331,0,2.7874,2.7919,2.7944,2.7976,2.8026,2.8039,2.8088,2.8106,2.8133,2.8168,2.817,2.8202,2.8218,2.8252,2.8262,2.831,2.832,2.8327,2.8329,2.8326,2.8325,2.8339,2.8334,2.8334,2.8333,2.8333,2.8332,0,2.793,2.7949,2.8006,2.8042,2.8052,2.8087,2.8117,2.8148,2.8163,2.8207,2.8218,2.8241,2.8282,2.8297,2.8346,2.8353,2.8408,2.8408,2.8398,2.8398,2.8427,2.8424,2.8523,2.8536,2.846,2.8461,2.8461,0,2.7973,2.8008,2.8048,2.8071,2.8091,2.813,2.8155,2.8168,2.8194,2.8233,2.8259,2.8299,2.8332,2.8397,2.8417,2.8454,2.8453,2.8486,2.8459,2.8455,2.8452,2.8449,2.8452,2.849,2.8491,2.8492,2.8492,0,2.8046,2.8054,2.809,2.813,2.8159,2.8191,2.8221,2.824,2.8259,2.8287,2.8329,2.8355,2.8405,2.8444,2.8483,2.8501,2.8499,2.8501,2.8509,2.8506,2.8499,2.8502,2.841,2.8498,2.8497,2.8497,2.8497,2.8496,2.8096,2.8127,2.8159,2.8199,2.8224,2.8252,2.8282,2.8301,2.8337,2.8379,2.8385,2.8429,2.8459,2.8511,2.853,2.8564,2.8556,2.8569,2.8572,2.8575,2.8576,2.8494,2.8572,2.8571,2.8571,2.8571,2.8571,0,2.8169,2.819,2.8226,2.8269,2.83,2.8297,2.8331,2.8356,2.8396,2.8425,2.8457,2.8504,2.8543,2.8566,2.8604,2.8627,2.8627,2.8636,2.8634,2.8638,2.8582,2.857,2.8635,2.8635,2.8635,2.8635,2.8635,2.8635,2.821,2.8261,2.8272,2.8334,2.8354,2.8399,2.8418,2.8443,2.8466,2.8519,2.8551,2.8567,2.8593,2.8633,2.8667,2.8673,2.8686,2.8696,2.8701,2.8648,2.8642,2.8635,2.8624,2.8699,2.8699,2.8753,2.8754,2.8754]}]]